CZ-3B DEB, 40164

Orbit data source: Space-Track

CZ-3B DEB, 40164 is space debris in HEO originally from a launch on Sat, 04 Sep 2010 UTC launched from the Xichang Space Center, China (XSC). Debris objects in space refer to the collection of defunct objects orbiting the Earth. Examples of debris include non-operational satellites, rocket bodies, and fragments generated from explosions, collisions, or faulty payload assembly.

Loading next visibility...
Identifier
40164, 2010-042R
Orbit
HEO
Country
Flag of CNCN / PRC
Related business
Manufacturer
CALT
Mission
Spacecraft
Bus & Motor
Unknown
Mass
Unknown
Launch date (UTC)
2010-09-04 (15 years ago)
Launch vehicle
Unknown
Launch site
Xichang Space Center, China (XSC)
Object type
Payload
Rocket body
Debris
Shape & HBR
Unknown shape, 0.3 m
Radar Cross Section
Medium (>0.1 m² and <1 m²)

Expand to show TLE details & history
Last TLE update: 4 days ago

TLE from 4 days ago
0 CZ-3B DEB
1 40164U 10042R   25288.81699541 -.00000137  00000-0  00000-0 0  9992
2 40164  27.3182 295.9815 7277081 282.2668 162.1870  1.89872267 82628
Epoch: 2025-10-15T19:36Z
TLE epoch observation values (Epoch: 2025-10-15T19:36:28.403Z)
Latitude
27.03037°
Longitude
76.41107°
Altitude
40,910.644 km
Speed
1.546 km/s
True Right ascension
02h 20m 27s
True Declination
27° 00' 34"
Sunlit
Object was in daylight at epoch
Visualization orbit readout
Latitude
Unknown
Longitude
Unknown
Altitude
Unknown
Speed
Unknown
Apparent Right ascension
Unknown
Apparent Declination
Unknown
Sunlit
N/A
Visualization observer readout
Local Sidereal Time
15:23:43
Azimuth
Unknown
Elevation
Unknown
Doppler factor
Unknown
Orbital elements
Apogee altitude
41,223.098 km
Perigee altitude
1,123.958 km
Semi-major axis
27,551.665 km
Eccentricity
0.72771
Inclination
27.3182°
RAAN
295.9815°
Arg. of periapsis
282.2668°
True anomaly
175.88819°
Mean anomaly
162.187°
Eccentric anomaly
169.66625°
Mean motion
0.47459 °/min
Orbital period
758.54 mins
BSTAR
0
Loading maneuver chart data...
Computing Atmospheric mass density...
Loading historical data...
Loading historical data...
Loading historical data...
Loading historical data...
Loading historical data...
Loading historical data...
Loading historical data...

Documentation

Showing up to 5 results
|